FENGYUN 1C DEB

Satellite information

Favourite Embed

Satellite Type and Status

DEBRISIN ORBIT

Key statistics

Satellite FENGYUN 1C DEB at a glance.

Uptime

9715

Days in orbit

Revolutions

≈ 14.7

Per day

Orbit

SSO

Sun Synchronous Orbit

Inclination

99.3

Latest

Satellite identification and parameters

Extended collection of information and parameters for FENGYUN 1C DEB.

Object identification

Identified? True

Debris? True

Object name: FENGYUN 1C DEB

International designator: 1999-025CGF

Object number (NORAD): 31780

Object ID (CCSDS): 31780

Country: PEOPLES REPUBLIC OF CHINA (PRC)

Current information (Y/N): Y

RCS size: SMALL

Orbital parameters

Period: 97.99 minutes

Inclination: 99.2857 deg

SMA: 7040.678 km

Apoapsis: 768.729 km

Periapsis: 556.357 km

RAAN: 138.9527 deg

Eccentricy: 0.01508182

Argument of periapsis: 54.3457 deg

Mean anomaly: 307.1681 deg

Mean motion: 14.69538673 rev/day

Mean motion (dot): 0.0000321 rev/day2

B* drag term: 0.00046418273 1/REarth

Two-line elements (TLE)

Creation date: Dec. 13, 2025, 4:32 a.m.

Reference frame: TEME

Reference center: EARTH

Epoch: Dec. 12, 2025, 8:55 a.m. UTC

TLE line 0: 0 FENGYUN 1C DEB

TLE line 1: 1 31780U 99025CGF 25346.37191357 .00003210 00000-0 46418-3 0 9992

TLE line 2: 2 31780 99.2857 138.9527 0150818 54.3457 307.1681 14.69538673984927

Live tracking on map

Real-time ground track for satellite FENGYUN 1C DEB.

In-orbit conjunctions

A list of the most updated potential collisions computed for object FENGYUN 1C DEB.

Target Orbit TCA Probability of collision Miss distance Type
THORAD AGENA D DEB LEO 2024-11-09 02:12:49 0.000100991 340.0 (m) DEBRIS
COSMOS 2251 DEB LEO 2024-11-01 11:23:28 0.000247426 53.0 (m) DEBRIS
SL-14 R/B LEO 2024-09-26 19:06:29 0.0007517105 856.0 (m) ROCKET BODY
METEOR 2-1 DEB LEO 2024-09-26 13:20:53 0.0005184217 229.0 (m) DEBRIS

Associated space launch

Chinese polar orbiting meteorological satellite

FENGYUN 1C DEB was lifted into orbit during the mission ‘Long March 4B | Feng Yun 1C’, on board a Long March 4B space rocket.

The launch took place on May 10, 1999, 1:33 a.m. from Launch Complex 7.

For more information about the launch, click the button.

Launch to space Long March 4B | Feng Yun 1C
Long March 4B | Feng Yun 1C

Agency: N/A

Status: Launch Successful

Launch date: May 10, 1999, 1:33 a.m. UTC

Rocket: Long March 4B

Launch pad: Launch Complex 7

Location: Taiyuan Satellite Launch Center, People's Republic of China

...

Latest news about this satellite

There are no fresh news available about this satellite. Check back as we update our databases every day.


Newsletter sign-up

Weekly statistics, charts and insights to help you stay on top of the space industry.